QPF
0.01 0.01 0.01 0.00 0.00 0.00 0.01 0.01 0.01 0.01 0.01 0.01 0.02 0.03 0.03 0.03 0.03 0.05 0.03 0.02 0.02 0.02 0.03 0.03 0.03 0.02 0.02 0.01 0.01 0.01 0.01 0.02 0.02 0.03 0.04 0.04 0.04 0.03 0.02 0.01 0.01 0.01 0.01 0.01
0.00 0.00 0.00 0.00 0.00 0.00 0.00 0.00 0.00 0.00 0.01 0.02 0.03 0.03 0.03 0.03 0.03 0.05 0.05 0.03 0.02 0.03 0.03 0.03 0.03 0.02 0.02 0.02 0.01 0.01 0.01 0.01 0.01 0.01 0.01 0.01 0.01 0.01 0.01 0.01 0.01 0.01 0.01 0.01
0.01 0.01 0.01 0.01 0.00 0.00 0.00 0.00 0.01 0.01 0.01 0.02 0.02 0.03 0.02 0.03 0.04 0.04 0.04 0.03 0.02 0.02 0.02 0.03 0.02 0.02 0.03 0.02 0.02 0.02 0.01 0.01 0.01 0.01 0.01 0.01 0.01 0.01 0.01 0.01 0.01 0.01 0.01 0.03
0.02 0.02 0.02 0.01 0.01 0.01 0.00 0.00 0.00 0.01 0.01 0.02 0.02 0.02 0.02 0.02 0.02 0.03 0.03 0.03 0.03 0.02 0.02 0.03 0.02 0.02 0.02 0.02 0.02 0.01 0.01 0.01 0.01 0.01 0.01 0.01 0.01 0.00 0.01 0.01 0.01 0.01 0.02 0.04
0.03 0.02 0.02 0.01 0.01 0.01 0.01 0.01 0.01 0.01 0.01 0.02 0.02 0.02 0.02 0.01 0.01 0.01 0.02 0.03 0.03 0.03 0.03 0.05 0.03 0.02 0.02 0.02 0.01 0.01 0.01 0.01 0.01 0.01 0.01 0.01 0.01 0.01 0.01 0.01 0.01 0.01 0.01 0.02
0.03 0.03 0.03 0.02 0.02 0.01 0.02 0.02 0.01 0.01 0.01 0.02 0.02 0.02 0.01 0.01 0.01 0.02 0.02 0.02 0.03 0.03 0.04 0.05 0.04 0.02 0.02 0.02 0.02 0.01 0.01 0.01 0.01 0.01 0.01 0.01 0.01 0.01 0.01 0.01 0.01 0.01 0.01 0.00
0.04 0.04 0.04 0.01 0.01 0.02 0.02 0.02 0.01 0.01 0.01 0.02 0.02 0.02 0.02 0.01 0.01 0.01 0.03 0.03 0.03 0.03 0.04 0.04 0.03 0.02 0.01 0.01 0.02 0.01 0.01 0.01 0.01 0.02 0.02 0.01 0.01 0.01 0.01 0.01 0.00 0.00 0.00 0.00
0.05 0.06 0.05 0.01 0.01 0.02 0.03 0.01 0.01 0.01 0.02 0.02 0.03 0.03 0.03 0.02 0.02 0.01 0.02 0.02 0.03 0.03 0.03 0.03 0.03 0.02 0.01 0.01 0.01 0.01 0.01 0.01 0.01 0.01 0.01 0.01 0.01 0.01 0.01 0.00 0.00 0.00 0.00 0.00
0.04 0.05 0.04 0.02 0.02 0.02 0.01 0.01 0.02 0.02 0.02 0.01 0.02 0.03 0.04 0.04 0.05 0.04 0.02 0.02 0.03 0.02 0.02 0.02 0.02 0.02 0.02 0.01 0.02 0.01 0.01 0.01 0.00 0.01 0.01 0.01 0.01 0.01 0.01 0.01 0.01 0.01 0.00 0.00
0.03 0.03 0.03 0.02 0.01 0.02 0.02 0.03 0.03 0.03 0.02 0.02 0.02 0.03 0.03 0.03 0.05 0.05 0.04 0.03 0.03 0.02 0.02 0.02 0.02 0.02 0.02 0.02 0.02 0.02 0.02 0.01 0.01 0.01 0.01 0.01 0.01 0.01 0.01 0.01 0.01 0.01 0.01 0.01
0.03 0.03 0.04 0.02 0.03 0.03 0.04 0.06 0.04 0.04 0.04 0.03 0.03 0.04 0.04 0.03 0.04 0.05 0.05 0.05 0.04 0.02 0.02 0.01 0.01 0.02 0.02 0.03 0.02 0.02 0.02 0.01 0.01 0.01 0.01 0.01 0.01 0.00 0.01 0.01 0.01 0.01 0.01 0.01
0.03 0.04 0.04 0.03 0.04 0.06 0.12 0.15 0.07 0.05 0.05 0.04 0.03 0.05 0.05 0.03 0.03 0.03 0.03 0.03 0.03 0.03 0.03 0.02 0.01 0.01 0.01 0.02 0.02 0.02 0.02 0.02 0.02 0.02 0.01 0.01 0.01 0.00 0.01 0.01 0.01 0.01 0.01 0.01
0.02 0.03 0.02 0.02 0.05 0.10 0.15 0.12 0.07 0.04 0.05 0.07 0.04 0.05 0.05 0.05 0.04 0.02 0.02 0.02 0.02 0.01 0.02 0.02 0.02 0.01 0.01 0.02 0.02 0.02 0.02 0.02 0.02 0.02 0.02 0.01 0.01 0.01 0.00 0.00 0.01 0.01 0.01 0.01
0.02 0.01 0.01 0.02 0.04 0.09 0.16 0.15 0.09 0.04 0.04 0.06 0.04 0.04 0.04 0.04 0.04 0.02 0.02 0.02 0.01 0.01 0.01 0.01 0.01 0.01 0.02 0.02 0.03 0.03 0.03 0.03 0.02 0.02 0.01 0.01 0.01 0.01 0.00 0.00 0.00 0.00 0.00 0.01
0.02 0.01 0.01 0.01 0.02 0.05 0.09 0.11 0.08 0.04 0.04 0.04 0.04 0.03 0.04 0.03 0.03 0.02 0.01 0.02 0.02 0.01 0.01 0.01 0.01 0.01 0.02 0.02 0.03 0.04 0.05 0.04 0.03 0.03 0.03 0.03 0.02 0.03 0.02 0.02 0.01 0.00 0.00 0.00
0.03 0.01 0.01 0.01 0.02 0.03 0.03 0.05 0.07 0.04 0.03 0.03 0.03 0.02 0.02 0.02 0.03 0.02 0.02 0.02 0.02 0.02 0.02 0.01 0.01 0.02 0.02 0.02 0.03 0.03 0.04 0.05 0.06 0.05 0.05 0.06 0.06 0.05 0.05 0.04 0.02 0.02 0.01 0.01
0.02 0.01 0.01 0.01 0.01 0.03 0.03 0.03 0.03 0.02 0.02 0.02 0.03 0.04 0.04 0.04 0.05 0.03 0.02 0.03 0.04 0.03 0.02 0.02 0.02 0.03 0.04 0.03 0.03 0.04 0.05 0.06 0.06 0.05 0.04 0.04 0.04 0.04 0.04 0.04 0.03 0.03 0.02 0.01
0.02 0.01 0.01 0.01 0.01 0.02 0.02 0.02 0.01 0.02 0.01 0.01 0.02 0.03 0.05 0.07 0.07 0.03 0.03 0.03 0.03 0.03 0.03 0.04 0.05 0.06 0.05 0.04 0.04 0.04 0.05 0.06 0.05 0.04 0.03 0.03 0.03 0.02 0.03 0.03 0.02 0.02 0.02 0.01
0.01 0.00 0.01 0.00 0.01 0.02 0.01 0.01 0.01 0.01 0.01 0.01 0.02 0.03 0.04 0.08 0.07 0.04 0.03 0.04 0.03 0.03 0.04 0.04 0.05 0.07 0.05 0.05 0.04 0.03 0.03 0.04 0.03 0.02 0.02 0.02 0.02 0.03 0.02 0.02 0.02 0.01 0.01 0.01
0.01 0.01 0.00 0.00 0.00 0.01 0.02 0.02 0.02 0.01 0.01 0.01 0.02 0.04 0.05 0.07 0.07 0.04 0.03 0.04 0.04 0.03 0.04 0.04 0.03 0.03 0.03 0.04 0.04 0.03 0.03 0.03 0.04 0.03 0.02 0.02 0.02 0.02 0.02 0.01 0.01 0.01 0.01 0.01
0.02 0.01 0.00 0.00 0.01 0.01 0.02 0.02 0.02 0.02 0.02 0.03 0.04 0.05 0.06 0.07 0.08 0.07 0.05 0.04 0.04 0.04 0.04 0.03 0.02 0.02 0.02 0.04 0.03 0.03 0.02 0.03 0.05 0.05 0.03 0.03 0.02 0.02 0.02 0.02 0.01 0.01 0.01 0.01
0.04 0.03 0.02 0.01 0.01 0.01 0.01 0.02 0.02 0.02 0.03 0.05 0.07 0.07 0.06 0.06 0.08 0.09 0.08 0.07 0.05 0.05 0.06 0.05 0.03 0.03 0.03 0.03 0.04 0.04 0.03 0.03 0.03 0.04 0.04 0.03 0.02 0.02 0.01 0.01 0.01 0.01 0.01 0.01
0.02 0.03 0.03 0.03 0.03 0.03 0.02 0.02 0.03 0.04 0.04 0.05 0.05 0.06 0.06 0.07 0.07 0.07 0.06 0.06 0.05 0.06 0.10 0.11 0.07 0.05 0.03 0.03 0.04 0.03 0.03 0.03 0.03 0.04 0.04 0.03 0.03 0.03 0.02 0.02 0.02 0.01 0.01 0.01
0.02 0.02 0.01 0.03 0.05 0.05 0.04 0.03 0.03 0.03 0.04 0.04 0.05 0.06 0.06 0.06 0.06 0.05 0.04 0.04 0.05 0.08 0.11 0.10 0.08 0.06 0.04 0.04 0.05 0.05 0.04 0.03 0.03 0.04 0.04 0.04 0.03 0.03 0.02 0.02 0.02 0.02 0.02 0.02
0.02 0.01 0.01 0.03 0.06 0.07 0.06 0.04 0.04 0.04 0.04 0.04 0.04 0.05 0.05 0.05 0.05 0.04 0.03 0.04 0.05 0.06 0.07 0.06 0.05 0.05 0.05 0.05 0.06 0.06 0.05 0.04 0.03 0.03 0.03 0.04 0.03 0.03 0.02 0.02 0.02 0.03 0.02 0.02
0.02 0.02 0.01 0.02 0.04 0.06 0.06 0.04 0.03 0.04 0.05 0.04 0.04 0.04 0.03 0.03 0.02 0.01 0.01 0.01 0.02 0.02 0.02 0.03 0.03 0.03 0.03 0.04 0.04 0.04 0.04 0.03 0.03 0.03 0.03 0.04 0.04 0.03 0.02 0.02 0.02 0.02 0.02 0.02
0.02 0.02 0.02 0.03 0.04 0.04 0.05 0.05 0.04 0.04 0.04 0.03 0.03 0.02 0.02 0.03 0.02 0.01 0.01 0.01 0.01 0.01 0.01 0.01 0.01 0.02 0.02 0.02 0.02 0.02 0.02 0.01 0.02 0.03 0.04 0.03 0.04 0.05 0.04 0.03 0.03 0.03 0.03 0.04
MSLP
1005.83 1005.46 1005.15 1004.98 1005.00 1005.21 1005.59 1006.11 1006.69 1007.29 1007.84 1008.31 1008.66 1008.90 1009.04 1009.09 1009.07 1009.02 1008.96 1008.90 1008.86 1008.86 1008.88 1008.93 1009.01 1009.11 1009.21 1009.31 1009.39 1009.45 1009.50 1009.51 1009.50 1009.48 1009.44 1009.38 1009.32 1009.24 1009.15 1009.03 1008.88 1008.71 1008.50 1008.27
1005.75 1005.38 1005.03 1004.77 1004.67 1004.76 1005.04 1005.49 1006.07 1006.74 1007.43 1008.10 1008.68 1009.17 1009.52 1009.76 1009.88 1009.91 1009.87 1009.78 1009.68 1009.59 1009.51 1009.47 1009.45 1009.46 1009.49 1009.52 1009.54 1009.55 1009.53 1009.48 1009.42 1009.33 1009.24 1009.14 1009.04 1008.93 1008.82 1008.69 1008.55 1008.37 1008.18 1007.96
1005.81 1005.50 1005.18 1004.91 1004.76 1004.78 1004.99 1005.38 1005.94 1006.62 1007.36 1008.12 1008.82 1009.43 1009.92 1010.26 1010.46 1010.54 1010.51 1010.40 1010.26 1010.11 1009.97 1009.86 1009.78 1009.74 1009.71 1009.69 1009.66 1009.60 1009.52 1009.41 1009.27 1009.12 1008.97 1008.81 1008.67 1008.53 1008.39 1008.24 1008.09 1007.91 1007.72 1007.52
1006.01 1005.82 1005.59 1005.38 1005.24 1005.24 1005.41 1005.75 1006.25 1006.88 1007.60 1008.34 1009.06 1009.69 1010.21 1010.58 1010.81 1010.90 1010.87 1010.76 1010.60 1010.42 1010.26 1010.12 1010.01 1009.93 1009.87 1009.80 1009.72 1009.61 1009.46 1009.27 1009.06 1008.84 1008.61 1008.39 1008.19 1008.00 1007.82 1007.65 1007.49 1007.31 1007.12 1006.93
1006.36 1006.31 1006.20 1006.08 1006.00 1006.01 1006.15 1006.44 1006.87 1007.41 1008.04 1008.71 1009.36 1009.94 1010.41 1010.76 1010.97 1011.05 1011.02 1010.91 1010.75 1010.58 1010.42 1010.28 1010.16 1010.07 1009.97 1009.87 1009.73 1009.55 1009.33 1009.07 1008.78 1008.47 1008.16 1007.87 1007.60 1007.36 1007.14 1006.94 1006.76 1006.58 1006.40 1006.22
1006.80 1006.89 1006.90 1006.89 1006.88 1006.92 1007.05 1007.29 1007.63 1008.08 1008.59 1009.14 1009.67 1010.15 1010.54 1010.83 1011.00 1011.06 1011.03 1010.93 1010.79 1010.64 1010.50 1010.37 1010.26 1010.15 1010.03 1009.88 1009.69 1009.45 1009.15 1008.81 1008.43 1008.04 1007.65 1007.28 1006.94 1006.64 1006.38 1006.14 1005.94 1005.75 1005.58 1005.43
1007.30 1007.50 1007.62 1007.69 1007.75 1007.82 1007.95 1008.14 1008.41 1008.75 1009.14 1009.56 1009.96 1010.33 1010.63 1010.84 1010.97 1011.00 1010.97 1010.89 1010.77 1010.65 1010.53 1010.42 1010.30 1010.18 1010.04 1009.85 1009.60 1009.29 1008.92 1008.50 1008.05 1007.57 1007.11 1006.67 1006.26 1005.90 1005.59 1005.32 1005.09 1004.90 1004.74 1004.61
1007.83 1008.09 1008.28 1008.41 1008.52 1008.62 1008.74 1008.89 1009.10 1009.35 1009.63 1009.93 1010.22 1010.48 1010.69 1010.84 1010.92 1010.94 1010.90 1010.83 1010.74 1010.63 1010.53 1010.42 1010.31 1010.17 1009.99 1009.75 1009.45 1009.09 1008.65 1008.17 1007.64 1007.10 1006.57 1006.07 1005.61 1005.19 1004.84 1004.53 1004.28 1004.08 1003.93 1003.82
1008.38 1008.66 1008.87 1009.03 1009.15 1009.26 1009.37 1009.50 1009.66 1009.84 1010.04 1010.25 1010.45 1010.62 1010.76 1010.85 1010.89 1010.89 1010.85 1010.78 1010.69 1010.60 1010.50 1010.38 1010.25 1010.08 1009.86 1009.58 1009.23 1008.82 1008.34 1007.81 1007.24 1006.66 1006.08 1005.54 1005.03 1004.57 1004.17 1003.84 1003.56 1003.35 1003.20 1003.11
1008.95 1009.20 1009.40 1009.55 1009.67 1009.77 1009.87 1009.98 1010.10 1010.24 1010.38 1010.52 1010.66 1010.77 1010.85 1010.89 1010.89 1010.87 1010.81 1010.73 1010.63 1010.53 1010.41 1010.27 1010.10 1009.89 1009.64 1009.32 1008.93 1008.49 1007.98 1007.43 1006.84 1006.24 1005.65 1005.08 1004.55 1004.06 1003.63 1003.26 1002.96 1002.72 1002.57 1002.49
1009.54 1009.74 1009.89 1010.01 1010.10 1010.19 1010.27 1010.36 1010.46 1010.57 1010.67 1010.77 1010.85 1010.92 1010.95 1010.95 1010.91 1010.85 1010.77 1010.66 1010.53 1010.39 1010.24 1010.06 1009.85 1009.60 1009.30 1008.95 1008.55 1008.09 1007.58 1007.03 1006.46 1005.87 1005.28 1004.71 1004.17 1003.66 1003.21 1002.81 1002.48 1002.22 1002.04 1001.95
1010.15 1010.28 1010.37 1010.44 1010.50 1010.56 1010.62 1010.70 1010.77 1010.86 1010.93 1011.00 1011.04 1011.06 1011.04 1011.00 1010.92 1010.82 1010.69 1010.54 1010.37 1010.18 1009.98 1009.75 1009.49 1009.20 1008.87 1008.50 1008.09 1007.63 1007.14 1006.62 1006.08 1005.52 1004.97 1004.41 1003.88 1003.37 1002.89 1002.47 1002.11 1001.82 1001.62 1001.51
1010.74 1010.80 1010.83 1010.85 1010.87 1010.90 1010.94 1011.00 1011.06 1011.11 1011.16 1011.19 1011.19 1011.17 1011.10 1011.01 1010.89 1010.74 1010.56 1010.36 1010.14 1009.90 1009.65 1009.37 1009.06 1008.74 1008.38 1008.00 1007.58 1007.14 1006.68 1006.20 1005.71 1005.20 1004.68 1004.16 1003.65 1003.14 1002.66 1002.22 1001.83 1001.51 1001.27 1001.13
1011.27 1011.27 1011.24 1011.22 1011.21 1011.21 1011.23 1011.26 1011.29 1011.32 1011.33 1011.33 1011.29 1011.21 1011.11 1010.97 1010.80 1010.60 1010.38 1010.14 1009.87 1009.59 1009.29 1008.97 1008.63 1008.27 1007.89 1007.50 1007.09 1006.67 1006.24 1005.80 1005.35 1004.89 1004.42 1003.94 1003.45 1002.97 1002.49 1002.04 1001.63 1001.28 1001.01 1000.83
1011.67 1011.62 1011.56 1011.50 1011.46 1011.45 1011.44 1011.45 1011.46 1011.45 1011.43 1011.38 1011.30 1011.18 1011.03 1010.86 1010.65 1010.42 1010.17 1009.90 1009.61 1009.30 1008.97 1008.62 1008.26 1007.87 1007.47 1007.07 1006.66 1006.25 1005.84 1005.43 1005.02 1004.61 1004.18 1003.75 1003.29 1002.83 1002.37 1001.92 1001.50 1001.13 1000.83 1000.63
1011.90 1011.83 1011.74 1011.67 1011.62 1011.58 1011.57 1011.55 1011.53 1011.50 1011.44 1011.35 1011.23 1011.08 1010.90 1010.70 1010.47 1010.24 1009.98 1009.71 1009.41 1009.10 1008.76 1008.40 1008.01 1007.61 1007.20 1006.78 1006.36 1005.94 1005.54 1005.14 1004.76 1004.37 1003.98 1003.59 1003.17 1002.74 1002.30 1001.87 1001.45 1001.07 1000.76 1000.53
1011.98 1011.88 1011.79 1011.72 1011.66 1011.62 1011.59 1011.55 1011.51 1011.45 1011.36 1011.24 1011.09 1010.92 1010.73 1010.53 1010.31 1010.09 1009.85 1009.60 1009.33 1009.03 1008.71 1008.35 1007.96 1007.54 1007.11 1006.66 1006.22 1005.79 1005.37 1004.97 1004.59 1004.22 1003.85 1003.48 1003.10 1002.71 1002.30 1001.90 1001.50 1001.13 1000.81 1000.56
1011.92 1011.83 1011.73 1011.66 1011.61 1011.56 1011.52 1011.48 1011.42 1011.33 1011.22 1011.09 1010.93 1010.76 1010.58 1010.39 1010.20 1010.02 1009.82 1009.62 1009.39 1009.13 1008.83 1008.49 1008.11 1007.68 1007.23 1006.75 1006.27 1005.80 1005.35 1004.93 1004.53 1004.16 1003.80 1003.46 1003.11 1002.75 1002.39 1002.02 1001.66 1001.31 1000.99 1000.73
1011.81 1011.71 1011.63 1011.56 1011.51 1011.47 1011.43 1011.37 1011.30 1011.21 1011.09 1010.95 1010.80 1010.64 1010.48 1010.33 1010.19 1010.06 1009.92 1009.78 1009.60 1009.39 1009.13 1008.81 1008.44 1008.01 1007.53 1007.02 1006.51 1005.99 1005.50 1005.04 1004.61 1004.22 1003.86 1003.53 1003.21 1002.89 1002.57 1002.25 1001.92 1001.60 1001.30 1001.04
1011.72 1011.62 1011.55 1011.48 1011.44 1011.40 1011.35 1011.30 1011.22 1011.13 1011.01 1010.88 1010.74 1010.60 1010.48 1010.37 1010.29 1010.21 1010.13 1010.05 1009.93 1009.77 1009.55 1009.26 1008.89 1008.46 1007.96 1007.43 1006.87 1006.32 1005.78 1005.27 1004.81 1004.40 1004.04 1003.71 1003.41 1003.13 1002.85 1002.57 1002.28 1001.99 1001.71 1001.45
1011.72 1011.63 1011.55 1011.49 1011.44 1011.40 1011.36 1011.30 1011.23 1011.14 1011.03 1010.91 1010.79 1010.68 1010.59 1010.52 1010.48 1010.45 1010.42 1010.39 1010.32 1010.19 1010.01 1009.74 1009.39 1008.96 1008.46 1007.90 1007.32 1006.73 1006.15 1005.61 1005.12 1004.68 1004.31 1003.98 1003.70 1003.44 1003.19 1002.95 1002.70 1002.44 1002.18 1001.92
1011.85 1011.74 1011.66 1011.59 1011.55 1011.50 1011.46 1011.40 1011.33 1011.25 1011.15 1011.05 1010.95 1010.86 1010.80 1010.76 1010.74 1010.74 1010.74 1010.74 1010.69 1010.60 1010.44 1010.19 1009.85 1009.43 1008.93 1008.37 1007.78 1007.17 1006.57 1006.01 1005.50 1005.05 1004.66 1004.33 1004.05 1003.81 1003.59 1003.37 1003.15 1002.92 1002.67 1002.41
1012.09 1011.97 1011.87 1011.80 1011.74 1011.69 1011.65 1011.59 1011.53 1011.46 1011.37 1011.28 1011.20 1011.13 1011.07 1011.04 1011.04 1011.04 1011.05 1011.05 1011.02 1010.93 1010.78 1010.55 1010.23 1009.83 1009.35 1008.80 1008.21 1007.61 1007.01 1006.45 1005.93 1005.46 1005.07 1004.73 1004.46 1004.22 1004.01 1003.81 1003.60 1003.39 1003.15 1002.89
1012.39 1012.26 1012.15 1012.06 1011.99 1011.94 1011.89 1011.85 1011.79 1011.73 1011.66 1011.59 1011.51 1011.45 1011.40 1011.36 1011.34 1011.33 1011.32 1011.31 1011.26 1011.17 1011.02 1010.80 1010.50 1010.12 1009.66 1009.15 1008.60 1008.02 1007.44 1006.89 1006.38 1005.92 1005.52 1005.18 1004.89 1004.65 1004.44 1004.24 1004.04 1003.83 1003.60 1003.34
1012.72 1012.56 1012.43 1012.33 1012.25 1012.20 1012.15 1012.12 1012.08 1012.04 1011.98 1011.93 1011.86 1011.80 1011.74 1011.68 1011.64 1011.60 1011.55 1011.50 1011.43 1011.32 1011.16 1010.94 1010.66 1010.31 1009.90 1009.43 1008.93 1008.39 1007.86 1007.34 1006.84 1006.39 1005.99 1005.65 1005.35 1005.10 1004.87 1004.67 1004.46 1004.25 1004.02 1003.76
1013.00 1012.83 1012.68 1012.57 1012.48 1012.43 1012.40 1012.38 1012.36 1012.34 1012.32 1012.28 1012.22 1012.16 1012.09 1012.01 1011.93 1011.85 1011.77 1011.67 1011.56 1011.42 1011.25 1011.03 1010.77 1010.45 1010.09 1009.68 1009.23 1008.75 1008.27 1007.79 1007.33 1006.90 1006.50 1006.15 1005.84 1005.57 1005.32 1005.10 1004.88 1004.65 1004.42 1004.16
1013.22 1013.03 1012.87 1012.75 1012.67 1012.62 1012.61 1012.62 1012.63 1012.65 1012.65 1012.64 1012.60 1012.54 1012.46 1012.36 1012.25 1012.12 1011.99 1011.85 1011.69 1011.52 1011.33 1011.12 1010.87 1010.59 1010.27 1009.92 1009.53 1009.12 1008.70 1008.26 1007.84 1007.43 1007.04 1006.68 1006.36 1006.06 1005.79 1005.54 1005.30 1005.06 1004.81 1004.55
Thickness
5726 5735 5737 5736 5737 5739 5731 5724 5713 5716 5718 5723 5727 5727 5726 5726 5726 5723 5719 5717 5714 5710 5707 5704 5701 5699 5696 5693 5690 5687 5682 5678 5675 5672 5669 5666 5662 5659 5656 5652 5649 5645 5642 5639
5719 5731 5731 5728 5734 5736 5734 5730 5723 5720 5716 5726 5728 5727 5724 5721 5719 5716 5713 5712 5710 5708 5704 5701 5699 5696 5692 5690 5687 5684 5680 5676 5673 5670 5667 5664 5661 5658 5654 5650 5646 5643 5640 5637
5697 5715 5716 5707 5723 5727 5724 5726 5721 5710 5712 5718 5718 5718 5716 5716 5714 5712 5711 5709 5707 5704 5702 5700 5698 5695 5691 5688 5685 5681 5678 5674 5671 5668 5665 5662 5660 5655 5652 5648 5644 5641 5638 5635
5686 5694 5683 5702 5727 5729 5721 5718 5720 5716 5715 5716 5714 5715 5715 5715 5711 5709 5708 5706 5704 5701 5699 5697 5695 5693 5690 5686 5683 5679 5675 5672 5670 5667 5663 5660 5657 5653 5650 5646 5642 5638 5636 5633
5674 5674 5682 5702 5715 5715 5707 5700 5710 5708 5708 5708 5709 5707 5706 5710 5709 5707 5706 5704 5702 5700 5696 5694 5691 5689 5685 5682 5679 5676 5673 5670 5668 5665 5662 5658 5654 5651 5648 5644 5640 5637 5634 5631
5669 5668 5666 5684 5708 5718 5707 5684 5700 5702 5701 5701 5699 5686 5690 5703 5705 5703 5703 5701 5698 5695 5692 5688 5687 5685 5680 5677 5675 5673 5671 5669 5667 5664 5660 5656 5653 5650 5647 5643 5639 5636 5632 5629
5662 5660 5668 5688 5702 5706 5678 5674 5691 5695 5696 5694 5689 5687 5691 5696 5697 5697 5696 5694 5692 5689 5685 5683 5682 5680 5676 5673 5672 5672 5670 5667 5664 5661 5657 5654 5650 5647 5644 5641 5637 5633 5630 5627
5653 5649 5657 5684 5688 5679 5674 5683 5686 5687 5688 5687 5686 5687 5687 5688 5688 5687 5686 5686 5684 5681 5679 5678 5677 5675 5672 5670 5671 5669 5666 5663 5660 5657 5655 5652 5647 5644 5641 5637 5634 5630 5626 5623
5652 5651 5665 5675 5676 5678 5679 5677 5678 5679 5681 5681 5680 5679 5679 5679 5679 5678 5678 5677 5677 5675 5673 5672 5672 5671 5668 5668 5667 5665 5661 5658 5656 5653 5650 5647 5643 5640 5637 5634 5630 5627 5624 5620
5648 5653 5660 5664 5669 5670 5672 5672 5674 5676 5676 5676 5672 5672 5671 5670 5669 5669 5670 5670 5669 5668 5667 5666 5666 5667 5666 5665 5664 5660 5657 5654 5652 5648 5645 5643 5641 5638 5635 5632 5628 5626 5622 5618
5639 5646 5650 5654 5658 5660 5662 5664 5666 5667 5669 5668 5666 5664 5663 5661 5660 5660 5662 5662 5662 5661 5661 5662 5662 5662 5662 5661 5659 5655 5653 5651 5648 5645 5642 5639 5637 5636 5634 5633 5630 5626 5622 5618
5629 5638 5637 5640 5648 5652 5652 5653 5655 5656 5657 5658 5658 5656 5655 5653 5652 5652 5653 5654 5654 5655 5656 5657 5657 5657 5657 5656 5654 5650 5648 5646 5644 5641 5639 5636 5634 5632 5633 5631 5630 5628 5624 5620
5632 5637 5637 5639 5641 5644 5644 5645 5647 5647 5646 5646 5648 5648 5646 5645 5645 5645 5646 5646 5646 5648 5650 5651 5651 5652 5653 5652 5650 5647 5644 5642 5640 5639 5636 5633 5631 5629 5627 5626 5626 5625 5622 5620
5630 5630 5628 5630 5630 5634 5635 5636 5637 5637 5638 5639 5638 5639 5638 5637 5636 5636 5637 5639 5641 5642 5643 5644 5645 5646 5647 5647 5645 5643 5641 5639 5637 5635 5634 5631 5629 5627 5625 5623 5621 5620 5620 5618
5621 5623 5621 5623 5623 5625 5626 5626 5626 5626 5627 5629 5629 5629 5629 5629 5629 5630 5632 5634 5635 5635 5636 5638 5638 5640 5641 5641 5639 5638 5636 5635 5634 5632 5631 5629 5627 5625 5622 5621 5619 5617 5616 5615
5610 5613 5614 5613 5613 5614 5615 5616 5615 5616 5618 5619 5621 5621 5622 5623 5624 5625 5626 5627 5627 5628 5630 5631 5633 5635 5636 5634 5633 5632 5632 5631 5630 5629 5628 5626 5624 5622 5620 5618 5616 5615 5613 5612
5597 5598 5602 5602 5604 5605 5606 5608 5609 5610 5611 5612 5613 5614 5614 5615 5616 5617 5619 5621 5622 5624 5625 5626 5628 5630 5631 5630 5628 5627 5627 5626 5627 5625 5624 5623 5622 5620 5619 5616 5614 5613 5612 5612
5590 5592 5594 5596 5597 5597 5599 5601 5603 5603 5604 5606 5607 5607 5607 5608 5608 5609 5612 5613 5615 5617 5620 5622 5623 5624 5625 5624 5623 5623 5622 5621 5621 5620 5620 5620 5619 5618 5617 5615 5613 5612 5610 5609
5583 5585 5588 5590 5592 5592 5593 5594 5595 5597 5599 5600 5600 5600 5601 5602 5604 5604 5605 5606 5607 5609 5613 5616 5617 5617 5618 5618 5618 5618 5617 5617 5616 5616 5616 5617 5616 5615 5614 5613 5612 5610 5608 5606
5575 5578 5580 5583 5585 5585 5585 5587 5589 5590 5591 5592 5592 5592 5593 5595 5597 5598 5598 5599 5601 5604 5606 5608 5609 5610 5610 5611 5611 5611 5611 5611 5611 5611 5611 5611 5611 5611 5610 5610 5609 5608 5606 5604
5566 5570 5572 5574 5575 5577 5579 5580 5581 5582 5584 5585 5585 5586 5586 5587 5589 5590 5590 5591 5595 5598 5600 5601 5602 5602 5603 5604 5604 5604 5605 5605 5606 5606 5606 5606 5606 5606 5606 5606 5605 5605 5603 5602
5558 5561 5564 5566 5567 5569 5571 5573 5574 5575 5576 5578 5579 5580 5580 5580 5582 5583 5584 5586 5589 5591 5592 5594 5595 5596 5596 5597 5597 5598 5599 5600 5601 5601 5602 5602 5602 5602 5602 5602 5601 5601 5600 5599
5550 5553 5555 5558 5559 5560 5563 5564 5566 5568 5569 5571 5571 5572 5572 5573 5574 5575 5577 5580 5583 5585 5586 5587 5589 5590 5590 5590 5591 5592 5594 5594 5595 5596 5597 5597 5598 5598 5597 5597 5597 5597 5596 5596
5542 5545 5548 5550 5552 5553 5553 5555 5558 5561 5563 5564 5566 5566 5566 5567 5568 5571 5573 5575 5577 5579 5580 5582 5583 5584 5584 5584 5585 5586 5587 5589 5590 5591 5592 5592 5593 5593 5593 5593 5592 5593 5592 5592
5535 5537 5540 5542 5543 5544 5545 5547 5550 5552 5554 5556 5558 5560 5561 5562 5563 5566 5568 5570 5572 5572 5574 5576 5577 5578 5578 5579 5580 5581 5583 5584 5585 5586 5587 5587 5587 5588 5588 5588 5588 5588 5588 5587
5528 5530 5533 5535 5536 5537 5539 5541 5542 5544 5545 5547 5550 5553 5555 5557 5559 5561 5563 5565 5566 5567 5567 5569 5570 5571 5573 5574 5576 5577 5578 5579 5580 5581 5582 5582 5583 5583 5583 5583 5584 5583 5584 5584
5521 5523 5525 5527 5529 5532 5534 5535 5536 5537 5539 5540 5542 5545 5548 5550 5553 5555 5557 5558 5559 5560 5561 5563 5564 5566 5568 5569 5570 5571 5573 5574 5575 5576 5576 5576 5577 5577 5578 5579 5579 5580 5580 5580